TimeCDT,TemperatureF,Dew PointF,Humidity,Sea Level PressureIn,VisibilityMPH,Wind Direction,Wind SpeedMPH,Gust SpeedMPH,PrecipitationIn,Events,Conditions,WindDirDegrees,DateUTC
12:53 AM,55.0,48.9,80,30.01,10.0,NE,10.4,-,N/A,,Clear,40,2013-05-23 05:53:00
1:53 AM,53.1,48.0,83,30.03,10.0,NNE,9.2,-,N/A,,Clear,30,2013-05-23 06:53:00
2:53 AM,52.0,48.0,86,30.04,10.0,NNE,12.7,-,N/A,,Clear,30,2013-05-23 07:53:00
3:53 AM,50.0,46.9,89,30.06,10.0,North,9.2,-,N/A,,Clear,10,2013-05-23 08:53:00
4:53 AM,48.0,46.0,93,30.07,10.0,North,8.1,-,N/A,,Clear,10,2013-05-23 09:53:00
5:53 AM,48.0,46.0,93,30.09,10.0,North,8.1,-,N/A,,Clear,10,2013-05-23 10:53:00
6:53 AM,50.0,46.0,86,30.12,10.0,North,9.2,-,0.00,Rain,Light Rain,10,2013-05-23 11:53:00
7:53 AM,50.0,46.0,86,30.13,10.0,North,9.2,-,0.00,,Clear,10,2013-05-23 12:53:00
8:53 AM,54.0,46.0,75,30.11,10.0,NNE,21.9,-,N/A,,Clear,30,2013-05-23 13:53:00
9:53 AM,57.9,46.9,67,30.12,10.0,NNE,17.3,21.9,N/A,,Clear,30,2013-05-23 14:53:00
10:53 AM,62.1,48.9,62,30.12,10.0,NE,15.0,21.9,N/A,,Clear,50,2013-05-23 15:53:00
11:53 AM,64.0,48.9,58,30.14,10.0,East,11.5,19.6,N/A,,Scattered Clouds,90,2013-05-23 16:53:00
12:01 PM,64.4,48.2,56,30.15,10.0,East,13.8,19.6,N/A,,Mostly Cloudy,80,2013-05-23 17:01:00
12:18 PM,64.4,50.0,59,30.16,10.0,East,8.1,20.7,N/A,,Scattered Clouds,80,2013-05-23 17:18:00
12:53 PM,66.0,50.0,56,30.14,10.0,ENE,13.8,21.9,N/A,,Partly Cloudy,60,2013-05-23 17:53:00
1:53 PM,69.1,50.0,51,30.13,10.0,East,13.8,18.4,N/A,,Clear,100,2013-05-23 18:53:00
2:53 PM,69.1,50.0,51,30.14,10.0,ENE,15.0,24.2,N/A,,Clear,60,2013-05-23 19:53:00
3:53 PM,71.1,51.1,49,30.13,10.0,East,12.7,20.7,N/A,,Clear,80,2013-05-23 20:53:00
4:53 PM,70.0,50.0,49,30.13,10.0,SE,11.5,-,N/A,,Clear,130,2013-05-23 21:53:00
5:53 PM,71.1,51.1,49,30.12,10.0,ESE,15.0,21.9,N/A,,Clear,120,2013-05-23 22:53:00
6:53 PM,70.0,52.0,53,30.10,10.0,East,15.0,-,N/A,,Clear,90,2013-05-23 23:53:00
7:53 PM,68.0,52.0,56,30.09,10.0,East,13.8,-,N/A,,Mostly Cloudy,90,2013-05-24 00:53:00
8:53 PM,64.0,52.0,65,30.10,10.0,East,11.5,-,N/A,,Partly Cloudy,80,2013-05-24 01:53:00
9:53 PM,63.0,52.0,67,30.11,10.0,East,9.2,-,N/A,,Mostly Cloudy,100,2013-05-24 02:53:00
10:53 PM,61.0,52.0,72,30.14,10.0,ESE,6.9,-,N/A,,Mostly Cloudy,110,2013-05-24 03:53:00
11:53 PM,60.1,53.1,78,30.16,10.0,East,8.1,-,N/A,,Mostly Cloudy,90,2013-05-24 04:53:00